Location: PSU-Greenbush Astrophysical Observatory
(37.5140°N, 94.9880°W)
Time: 05:15:29
(UTC-06:00)

Transit 2A - Pass Details

Date: 30 January 2020
Orbit: 600 x 959 km, 66.7° (Epoch: 22 February)

Event Time Altitude Azimuth Distance (km) Brightness Sun altitude
Rises 02:43:02 0° 348° (NNW) 3,004 - -55.4°
Reaches altitude 10° 02:46:03 10° 9° (N) 2,149 - -54.9°
Maximum altitude 02:49:14 17° 50° (NE) 1,782 - -54.3°
Drops below altitude 10° 02:52:36 10° 91° (E) 2,292 - -53.7°
Sets 02:55:57 0° 111° (ESE) 3,296 - -53.1°
